When you browse on this site, cookies collect data to enhance your experience and personalize the content and advertising you see.
Visit our Privacy Policy to learn more. By continuing to use the site, you agree to this use of cookies and data.
  • In Schweiz
  • Länderverzeichnis
  • Für 7 Tage
  • Wassertemperatur
  • Satellitenkarten
  • Wetterkarte
  • Widgets
  • user-avatar
    Anmelden

    Stündliche Wetter Zagorze

    Heute, 22 Mai, Mittwoch

    Zeit Temperatur Niederschläge Wind Luftdruck Luftfeuchtigkeit
    00:00 +14°C° 0 mm 2 m/S 737 mmHg 95%
    01:00 +13°C° 0 mm 3 m/S 736 mmHg 96%
    02:00 +13°C° 0 mm 2 m/S 736 mmHg 96%
    03:00 +13°C° 0 mm 2 m/S 736 mmHg 96%
    04:00 +12°C° 0 mm 2 m/S 737 mmHg 96%
    05:00 +12°C° 0 mm 3 m/S 737 mmHg 93%
    06:00 +13°C° 0 mm 3 m/S 737 mmHg 90%
    07:00 +14°C° 0 mm 4 m/S 737 mmHg 86%
    08:00 +15°C° 0 mm 4 m/S 737 mmHg 81%
    09:00 +16°C° 0 mm 5 m/S 738 mmHg 77%
    10:00 +17°C° 0 mm 5 m/S 738 mmHg 72%
    11:00 +19°C° 0.3 mm 5 m/S 738 mmHg 70%
    12:00 +20°C° 0.3 mm 5 m/S 739 mmHg 68%
    13:00 +20°C° 0.3 mm 5 m/S 739 mmHg 67%
    14:00 +20°C° 0.9 mm 5 m/S 739 mmHg 70%
    15:00 +19°C° 0.9 mm 6 m/S 739 mmHg 74%
    16:00 +19°C° 0.9 mm 6 m/S 739 mmHg 77%
    17:00 +17°C° 1.1 mm 6 m/S 739 mmHg 82%
    18:00 +16°C° 1.1 mm 7 m/S 740 mmHg 86%
    19:00 +15°C° 1.1 mm 7 m/S 740 mmHg 90%
    20:00 +15°C° 0.5 mm 7 m/S 740 mmHg 91%
    21:00 +13°C° 0.5 mm 8 m/S 741 mmHg 93%
    22:00 +13°C° 0.5 mm 8 m/S 741 mmHg 94%
    23:00 +12°C° 0.2 mm 8 m/S 741 mmHg 94%

    Morgen, 23 Mai, Donnerstag

    Zeit Temperatur Niederschläge Wind Luftdruck Luftfeuchtigkeit
    00:00 +12°C° 0.2 mm 7 m/S 742 mmHg 94%
    01:00 +12°C° 0.2 mm 7 m/S 742 mmHg 94%
    02:00 +12°C° 0.1 mm 7 m/S 742 mmHg 94%
    03:00 +11°C° 0.1 mm 7 m/S 742 mmHg 94%
    04:00 +11°C° 0.1 mm 7 m/S 743 mmHg 94%
    05:00 +11°C° 0.1 mm 7 m/S 743 mmHg 94%
    06:00 +11°C° 0.1 mm 7 m/S 743 mmHg 94%
    07:00 +10°C° 0.1 mm 7 m/S 744 mmHg 93%
    08:00 +11°C° 0.1 mm 7 m/S 744 mmHg 92%
    09:00 +11°C° 0.1 mm 7 m/S 745 mmHg 91%
    10:00 +11°C° 0.1 mm 7 m/S 745 mmHg 90%
    11:00 +11°C° 0 mm 7 m/S 745 mmHg 88%
    12:00 +12°C° 0 mm 7 m/S 745 mmHg 86%
    13:00 +12°C° 0 mm 7 m/S 745 mmHg 85%
    14:00 +13°C° 0 mm 6 m/S 745 mmHg 83%
    15:00 +14°C° 0 mm 5 m/S 745 mmHg 81%
    16:00 +15°C° 0 mm 4 m/S 745 mmHg 79%
    17:00 +14°C° 0 mm 4 m/S 745 mmHg 79%
    18:00 +14°C° 0 mm 4 m/S 745 mmHg 79%
    19:00 +14°C° 0 mm 3 m/S 745 mmHg 79%
    20:00 +14°C° 0 mm 3 m/S 746 mmHg 76%
    21:00 +13°C° 0 mm 4 m/S 746 mmHg 72%
    22:00 +13°C° 0 mm 4 m/S 746 mmHg 69%
    23:00 +13°C° 0 mm 4 m/S 746 mmHg 67%

    übermorgen, 24 Mai, Freitag

    Zeit Temperatur Niederschläge Wind Luftdruck Luftfeuchtigkeit
    00:00 +12°C° 0 mm 4 m/S 746 mmHg 64%
    01:00 +11°C° 0 mm 4 m/S 746 mmHg 62%
    02:00 +10°C° 0 mm 3 m/S 746 mmHg 66%
    03:00 +9°C° 0 mm 3 m/S 746 mmHg 70%
    04:00 +7°C° 0 mm 3 m/S 746 mmHg 75%
    05:00 +9°C° 0 mm 3 m/S 746 mmHg 75%
    06:00 +10°C° 0 mm 3 m/S 746 mmHg 75%
    07:00 +12°C° 0 mm 3 m/S 746 mmHg 75%
    08:00 +13°C° 0 mm 3 m/S 746 mmHg 69%
    09:00 +16°C° 0 mm 3 m/S 746 mmHg 64%
    10:00 +18°C° 0 mm 3 m/S 746 mmHg 58%
    11:00 +18°C° 0 mm 4 m/S 746 mmHg 57%
    12:00 +19°C° 0 mm 4 m/S 745 mmHg 55%
    13:00 +20°C° 0 mm 4 m/S 745 mmHg 53%
    14:00 +20°C° 0 mm 3 m/S 745 mmHg 54%
    15:00 +20°C° 0 mm 3 m/S 744 mmHg 56%
    16:00 +20°C° 0 mm 3 m/S 744 mmHg 57%
    17:00 +19°C° 0 mm 2 m/S 744 mmHg 63%
    18:00 +18°C° 0 mm 2 m/S 744 mmHg 69%
    19:00 +18°C° 0 mm 1 m/S 743 mmHg 74%
    20:00 +16°C° 0 mm 1 m/S 744 mmHg 78%
    21:00 +15°C° 0 mm 1 m/S 744 mmHg 81%
    22:00 +13°C° 0 mm 0 m/S 744 mmHg 84%
    23:00 +13°C° 0 mm 1 m/S 744 mmHg 85%

    25 Mai, Samstag

    Zeit Temperatur Niederschläge Wind Luftdruck Luftfeuchtigkeit
    00:00 +13°C° 0 mm 1 m/S 744 mmHg 85%
    01:00 +13°C° 0 mm 2 m/S 744 mmHg 86%
    02:00 +12°C° 0 mm 2 m/S 743 mmHg 87%
    03:00 +12°C° 0 mm 2 m/S 743 mmHg 88%
    04:00 +10°C° 0 mm 2 m/S 743 mmHg 89%
    05:00 +12°C° 0 mm 3 m/S 743 mmHg 85%
    06:00 +13°C° 0 mm 3 m/S 743 mmHg 81%
    07:00 +16°C° 0 mm 3 m/S 743 mmHg 76%
    08:00 +17°C° 0.1 mm 3 m/S 744 mmHg 72%
    09:00 +19°C° 0.1 mm 4 m/S 744 mmHg 68%
    10:00 +20°C° 0.1 mm 4 m/S 744 mmHg 64%
    11:00 +20°C° 0.2 mm 4 m/S 744 mmHg 64%
    12:00 +20°C° 0.2 mm 4 m/S 743 mmHg 64%
    13:00 +20°C° 0.2 mm 5 m/S 743 mmHg 64%
    14:00 +20°C° 0.1 mm 4 m/S 743 mmHg 65%
    15:00 +20°C° 0.1 mm 4 m/S 743 mmHg 66%
    16:00 +20°C° 0.1 mm 4 m/S 743 mmHg 67%
    17:00 +19°C° 0 mm 3 m/S 743 mmHg 69%
    18:00 +18°C° 0 mm 3 m/S 743 mmHg 71%
    19:00 +17°C° 0 mm 2 m/S 743 mmHg 73%
    20:00 +15°C° 0 mm 2 m/S 743 mmHg 78%
    21:00 +14°C° 0 mm 2 m/S 743 mmHg 82%
    22:00 +12°C° 0 mm 2 m/S 744 mmHg 87%
    23:00 +12°C° 0 mm 2 m/S 744 mmHg 88%

    26 Mai, Sonntag

    Zeit Temperatur Niederschläge Wind Luftdruck Luftfeuchtigkeit
    00:00 +10°C° 0 mm 2 m/S 744 mmHg 90%
    01:00 +10°C° 0 mm 1 m/S 744 mmHg 91%
    02:00 +9°C° 0 mm 2 m/S 743 mmHg 92%
    03:00 +9°C° 0 mm 2 m/S 743 mmHg 92%
    04:00 +9°C° 0 mm 2 m/S 743 mmHg 93%
    05:00 +10°C° 0 mm 3 m/S 743 mmHg 87%
    06:00 +11°C° 0 mm 4 m/S 743 mmHg 82%
    07:00 +13°C° 0 mm 5 m/S 743 mmHg 76%
    08:00 +13°C° 0 mm 5 m/S 743 mmHg 73%
    09:00 +14°C° 0 mm 6 m/S 743 mmHg 69%
    10:00 +15°C° 0 mm 6 m/S 743 mmHg 66%
    11:00 +15°C° 0 mm 7 m/S 743 mmHg 63%
    12:00 +15°C° 0 mm 7 m/S 743 mmHg 61%
    13:00 +15°C° 0 mm 7 m/S 742 mmHg 58%
    14:00 +15°C° 0 mm 7 m/S 742 mmHg 58%
    15:00 +16°C° 0 mm 7 m/S 742 mmHg 57%
    16:00 +16°C° 0 mm 8 m/S 742 mmHg 57%
    17:00 +15°C° 0 mm 6 m/S 742 mmHg 62%
    18:00 +14°C° 0 mm 5 m/S 742 mmHg 68%
    19:00 +12°C° 0 mm 4 m/S 743 mmHg 73%
    20:00 +11°C° 0 mm 4 m/S 743 mmHg 76%
    21:00 +10°C° 0 mm 3 m/S 743 mmHg 80%
    22:00 +9°C° 0 mm 3 m/S 743 mmHg 83%
    23:00 +8°C° 0 mm 3 m/S 744 mmHg 86%

    27 Mai, Montag

    Zeit Temperatur Niederschläge Wind Luftdruck Luftfeuchtigkeit
    00:00 +8°C° 0 mm 3 m/S 744 mmHg 90%
    01:00 +7°C° 0 mm 3 m/S 744 mmHg 94%
    02:00 +7°C° 0 mm 3 m/S 744 mmHg 95%
    03:00 +7°C° 0 mm 3 m/S 744 mmHg 95%
    04:00 +5°C° 0 mm 3 m/S 744 mmHg 96%
    05:00 +8°C° 0 mm 3 m/S 744 mmHg 90%
    06:00 +10°C° 0 mm 3 m/S 744 mmHg 83%
    07:00 +11°C° 0 mm 3 m/S 744 mmHg 76%
    08:00 +13°C° 0 mm 3 m/S 744 mmHg 73%
    09:00 +14°C° 0 mm 3 m/S 743 mmHg 69%
    10:00 +17°C° 0 mm 3 m/S 743 mmHg 66%
    11:00 +18°C° 0 mm 3 m/S 743 mmHg 64%
    12:00 +19°C° 0 mm 3 m/S 742 mmHg 62%
    13:00 +20°C° 0 mm 3 m/S 742 mmHg 60%
    14:00 +20°C° 0 mm 3 m/S 741 mmHg 59%
    15:00 +21°C° 0 mm 3 m/S 741 mmHg 58%
    16:00 +22°C° 0 mm 3 m/S 740 mmHg 58%
    17:00 +21°C° 0 mm 3 m/S 740 mmHg 63%
    18:00 +20°C° 0 mm 3 m/S 740 mmHg 69%
    19:00 +19°C° 0 mm 2 m/S 739 mmHg 74%
    20:00 +18°C° 0 mm 3 m/S 739 mmHg 77%
    21:00 +17°C° 0 mm 3 m/S 739 mmHg 80%
    22:00 +16°C° 0 mm 3 m/S 739 mmHg 83%
    23:00 +14°C° 0.1 mm 3 m/S 739 mmHg 85%
    Mehr zeigen